This is the latest recevied weather packets stored in our database for station/object WA7CUG. If no packets are shown the sender has not sent any weather packets the latest 10 day(s).
| Time | Temp. | Humidity | Pressure | Rain* | Wind** | Luminosity | Snow |
|---|---|---|---|---|---|---|---|
| 1777776049 | 24.44° C | 35% | 1013.4 hPa | 0 mm | - | 30 W/m² | - |
| 1777775745 | 24.44° C | 37% | 1013.4 hPa | 0 mm | - | 35 W/m² | - |
| 1777775443 | 25.56° C | 36% | 1013.6 hPa | 0 mm | - | 41 W/m² | - |
| 1777775138 | 25.56° C | 35% | 1013.5 hPa | 0 mm | - | 52 W/m² | - |
| 1777774833 | 25.56° C | 37% | 1013.4 hPa | 0 mm | - | 62 W/m² | - |
| 1777774530 | 26.11° C | 37% | 1013.6 hPa | 0 mm | - | 74 W/m² | - |
| 1777774227 | 26.11° C | 36% | 1013.6 hPa | 0 mm | - | 82 W/m² | - |
| 1777773924 | 26.67° C | 37% | 1013.7 hPa | 0 mm | - | 94 W/m² | - |
| 1777773621 | 26.67° C | 37% | 1013.6 hPa | 0 mm | - | 104 W/m² | - |
| 1777773318 | 26.67° C | 36% | 1013.5 hPa | 0 mm | - | 114 W/m² | - |
| 1777773015 | 27.22° C | 34% | 1013.7 hPa | 0 mm | - | 122 W/m² | - |
| 1777772711 | 26.67° C | 35% | 1013.7 hPa | 0 mm | - | 136 W/m² | - |
| 1777772409 | 27.22° C | 35% | 1013.6 hPa | 0 mm | - | 147 W/m² | - |
| 1777772106 | 27.22° C | 33% | 1013.7 hPa | 0 mm | - | 144 W/m² | - |
| 1777771804 | 27.22° C | 29% | 1013.7 hPa | 0 mm | - | 159 W/m² | - |
| 1777771501 | 27.22° C | 29% | 1013.8 hPa | 0 mm | - | 156 W/m² | - |
| 1777771196 | 27.78° C | 28% | 1013.8 hPa | 0 mm | - | 217 W/m² | - |
| 1777770894 | 27.78° C | 29% | 1013.8 hPa | 0 mm | - | 227 W/m² | - |
| 1777770591 | 27.78° C | 31% | 1013.8 hPa | 0 mm | - | 245 W/m² | - |
| 1777770287 | 28.33° C | 29% | 1013.8 hPa | 0 mm | - | 156 W/m² | - |
| 1777769985 | 28.33° C | 30% | 1013.7 hPa | 0 mm | - | 273 W/m² | - |
| 1777769682 | 28.33° C | 29% | 1013.8 hPa | 0 mm | - | 291 W/m² | - |
| 1777769379 | 27.78° C | 27% | 1013.8 hPa | 0 mm | - | 305 W/m² | - |
| 1777769075 | 27.78° C | 29% | 1014 hPa | 0 mm | - | 307 W/m² | - |
| 1777768773 | 27.78° C | 30% | 1013.9 hPa | 0 mm | - | 316 W/m² | - |
* Rain latest hour (hover to see other rain measurements)
** Current wind speed in m/s (hover to see current wind gust speed)